HAZ1373 ZSPD-ZSWZ

Flight info

Callsign HAZ1373
Flight time N/A
Altitude 17700
Route DCT PONAB W13 BEGMO BEGMO1F
Aircraft A321/M-SDE3FGHIRWY/LB1

Departure

Time 2026-04-30 12:22
Airport Shanghai Pudong International Airport (ZSPD)

Arrival

Time N/A
Airport Wenzhou Longwan International Airport (ZSWZ)
Time Latitude Longitude Altitude Speed Heading
2026-04-30 11:39 31.13310 121.81484 23 ft 0 kts 342°
2026-04-30 12:09 31.13290 121.81491 25 ft 4 kts 350°
2026-04-30 12:10 31.13263 121.81493 25 ft 4 kts 10°
2026-04-30 12:10 31.13241 121.81482 24 ft 4 kts 58°
2026-04-30 12:10 31.13237 121.81475 25 ft 0 kts 72°
2026-04-30 12:17 31.13246 121.81506 23 ft 9 kts 72°
2026-04-30 12:17 31.13271 121.81597 23 ft 11 kts 72°
2026-04-30 12:17 31.13304 121.81719 23 ft 19 kts 72°
2026-04-30 12:18 31.13318 121.81781 22 ft 10 kts 89°
2026-04-30 12:18 31.13239 121.81841 22 ft 19 kts 158°
2026-04-30 12:18 31.13082 121.81901 22 ft 28 kts 162°
2026-04-30 12:18 31.13009 121.81928 23 ft 5 kts 162°
2026-04-30 12:19 31.12940 121.81955 23 ft 16 kts 162°
2026-04-30 12:19 31.12803 121.82007 23 ft 26 kts 162°
2026-04-30 12:19 31.12680 121.82057 23 ft 11 kts 143°
2026-04-30 12:19 31.12688 121.82154 23 ft 16 kts 65°
2026-04-30 12:20 31.12710 121.82275 23 ft 18 kts 76°
2026-04-30 12:20 31.12772 121.82358 21 ft 12 kts
2026-04-30 12:20 31.12848 121.82331 22 ft 0 kts 342°
2026-04-30 12:21 31.12898 121.82313 22 ft 19 kts 342°
2026-04-30 12:21 31.13124 121.82227 22 ft 49 kts 342°
2026-04-30 12:22 31.13677 121.82017 23 ft 116 kts 342°
2026-04-30 12:22 31.14616 121.81662 21 ft 165 kts 342°
2026-04-30 12:22 31.15739 121.81244 559 ft 163 kts 343°
2026-04-30 12:22 31.16885 121.80924 884 ft 184 kts 357°
2026-04-30 12:23 31.18265 121.81044 917 ft 212 kts
2026-04-30 12:23 31.19779 121.81343 901 ft 235 kts 10°
2026-04-30 12:23 31.21461 121.81711 884 ft 252 kts 11°
2026-04-30 12:23 31.22253 121.81883 898 ft 254 kts 10°
2026-04-30 12:24 31.24000 121.82254 909 ft 256 kts
2026-04-30 12:24 31.25761 121.82606 909 ft 256 kts
2026-04-30 12:24 31.27533 121.82948 1303 ft 259 kts
2026-04-30 12:24 31.29306 121.83283 2377 ft 258 kts
2026-04-30 12:25 31.31078 121.83613 3418 ft 258 kts
2026-04-30 12:25 31.32847 121.83941 4441 ft 257 kts
2026-04-30 12:25 31.34567 121.84531 5426 ft 260 kts 23°
2026-04-30 12:25 31.36082 121.85736 5915 ft 268 kts 41°
2026-04-30 12:26 31.37187 121.87496 6074 ft 273 kts 62°
2026-04-30 12:26 31.37711 121.89618 6111 ft 277 kts 73°
2026-04-30 12:26 31.38109 121.91819 6111 ft 277 kts 75°
2026-04-30 12:26 31.38194 121.94076 6110 ft 283 kts 97°
2026-04-30 12:27 31.37488 121.96232 6108 ft 288 kts 122°
2026-04-30 12:27 31.36084 121.97894 6131 ft 290 kts 147°
2026-04-30 12:27 31.34230 121.98814 6134 ft 291 kts 163°
2026-04-30 12:27 31.32288 121.99528 6451 ft 294 kts 163°
2026-04-30 12:28 31.30331 122.00250 7362 ft 293 kts 164°
2026-04-30 12:28 31.28469 122.00946 8728 ft 273 kts 166°
2026-04-30 12:28 31.26641 122.01627 9284 ft 290 kts 166°
2026-04-30 12:28 31.24655 122.02358 9816 ft 300 kts 166°
2026-04-30 12:29 31.22743 122.03077 11039 ft 283 kts 167°
2026-04-30 12:29 31.20876 122.03782 11873 ft 282 kts 168°
2026-04-30 12:29 31.18997 122.04486 12589 ft 286 kts 168°
2026-04-30 12:29 31.17039 122.05269 12869 ft 311 kts 163°
2026-04-30 12:30 31.15699 122.05980 13011 ft 329 kts 157°
2026-04-30 12:30 31.12989 122.08008 13256 ft 364 kts 144°
2026-04-30 12:30 31.11698 122.09329 13361 ft 382 kts 138°
2026-04-30 12:30 31.09243 122.12556 13536 ft 412 kts 133°
2026-04-30 12:31 31.07987 122.14265 13663 ft 425 kts 133°
2026-04-30 12:31 31.06036 122.16902 14126 ft 433 kts 133°
2026-04-30 12:31 31.04047 122.19576 14647 ft 439 kts 133°
2026-04-30 12:31 31.01178 122.22922 15310 ft 443 kts 145°
2026-04-30 12:32 30.99495 122.24347 15642 ft 443 kts 152°
2026-04-30 12:32 30.95874 122.26481 16327 ft 440 kts 166°
2026-04-30 12:32 30.93951 122.27225 16674 ft 439 kts 170°
2026-04-30 12:32 30.91019 122.28288 17200 ft 444 kts 170°
2026-04-30 12:33 30.88053 122.29370 17722 ft 448 kts 170°
2026-04-30 12:33 30.85064 122.30464 18245 ft 453 kts 171°
2026-04-30 12:33 30.82052 122.31574 18714 ft 456 kts 171°
2026-04-30 12:33 30.79020 122.32693 19206 ft 458 kts 171°
2026-04-30 12:34 30.74987 122.34178 19719 ft 460 kts 171°
2026-04-30 12:34 30.72929 122.34935 19795 ft 460 kts 171°
2026-04-30 12:34 30.69926 122.36042 19844 ft 457 kts 172°
2026-04-30 12:34 30.66907 122.37155 19844 ft 454 kts 172°
2026-04-30 12:35 30.63894 122.38260 19844 ft 454 kts 172°
2026-04-30 12:35 30.60873 122.39287 19843 ft 448 kts 176°
2026-04-30 12:35 30.57839 122.39847 19794 ft 436 kts 185°
2026-04-30 12:35 30.54846 122.39901 19845 ft 425 kts 193°
2026-04-30 12:36 30.51897 122.39718 19840 ft 425 kts 193°
2026-04-30 12:36 30.48950 122.39540 19838 ft 425 kts 193°
2026-04-30 12:36 30.45995 122.39366 19839 ft 425 kts 193°